Location: Ethel Rock
(53.4667°N, 4.5667°W)
Time: 04:02:13
(UTC+00:00)

Cosmos 1484 Rocket - Pass Details

Date: 24 October 2020
Orbit: 504 x 560 km, 97.4° (Epoch: 25 November)

Event Time Altitude Azimuth Distance (km) Brightness Sun altitude
Rises 04:28:49 0° 20° (NNE) 2,728 6.8 -23.4°
Reaches altitude 10° 04:31:07 10° 30° (NNE) 1,820 6.0 -23.1°
Maximum altitude 04:34:43 34° 96° (E) 908 4.5 -22.5°
Drops below altitude 10° 04:38:14 10° 162° (SSE) 1,775 5.5 -22.0°
Sets 04:40:27 0° 172° (S) 2,649 6.3 -21.7°
